Location: Miri
(4.3833°N, 113.9833°E)
Time: 14:50:37
(UTC+08:00)

Envisat - Visible Passes

Search period start: 02 August 2021 00:00
Search period end: 12 August 2021 00:00
Orbit: 764 x 766 km, 98.2° (Epoch: 01 August)

Date Brightness Start Highest point End Pass type
(mag) Time Alt. Az. Time Alt. Az. Time Alt. Az.
02 Aug 3.1 05:38:07 10° N 05:43:04 55° WNW 05:48:02 10° SSW visible
03 Aug 3.8 05:01:25 10° NNE 05:06:19 51° ESE 05:11:14 10° S visible
04 Aug 5.5 04:26:13 10° ENE 04:29:34 18° ESE 04:32:56 10° SE visible
05 Aug 2.9 05:26:33 10° N 05:31:37 77° WNW 05:36:41 10° SSW visible
06 Aug 4.4 04:50:13 10° NE 04:54:51 37° ESE 04:59:30 10° SSE visible
07 Aug 5.8 04:15:54 10° ENE 04:18:07 13° ESE 04:20:19 10° SE visible
07 Aug 3.6 05:52:16 10° NNW 05:56:53 36° WNW 06:01:30 10° SW visible
08 Aug 3.1 05:15:05 10° NNE 05:20:08 78° E 05:25:14 10° S visible
09 Aug 4.9 04:39:10 10° NE 04:43:24 27° ESE 04:47:38 10° SSE visible
10 Aug 3.2 05:40:33 10° N 05:45:25 50° WNW 05:50:20 10° SSW visible
11 Aug 3.6 05:03:44 10° NNE 05:08:41 56° ESE 05:13:39 10° S visible
